CAPE
0 0 0 0 0 0 1 2 2 0 0 0 0 0 0 0 0 0 0 0 0 0 0 0 0 0 0 0 0 0 0 0 0 0 0 0 0 0 0 0 0 0 0 0 0 0 0 0 0 0 0 0 0 0
0 0 0 2 1 1 0 1 2 1 0 0 0 0 0 0 0 0 0 0 0 0 0 0 0 0 0 0 0 0 0 0 0 0 0 0 0 0 0 0 0 0 0 0 0 0 0 0 0 0 0 0 0 0
0 0 1 0 0 1 1 1 1 1 0 1 1 0 0 0 0 0 0 0 0 0 0 0 0 0 0 0 0 0 0 0 0 0 0 0 0 0 0 0 0 0 0 0 0 0 0 0 0 0 0 0 0 0
1 0 0 0 0 0 0 1 1 1 0 0 0 0 0 0 0 0 0 0 0 0 0 0 0 0 0 0 0 0 0 0 0 0 0 0 0 0 0 0 0 0 0 0 0 0 0 0 0 0 0 0 0 0
1 1 1 0 1 0 0 1 1 1 1 1 0 0 0 0 0 0 0 0 0 0 0 0 0 0 0 0 0 0 0 0 0 0 0 0 0 0 0 0 0 0 0 0 0 0 0 0 0 0 0 0 0 0
0 1 1 1 1 0 0 0 0 0 0 0 0 0 0 0 0 0 0 0 0 0 0 0 0 0 0 0 0 0 0 0 0 0 0 0 0 0 0 0 0 0 0 0 0 0 0 0 0 0 0 0 0 0
1 1 1 1 1 1 0 0 0 0 0 0 0 0 0 0 0 0 0 0 0 0 0 0 0 0 0 0 0 0 0 0 0 0 0 0 0 0 0 0 0 0 0 0 0 0 0 0 0 0 0 0 0 0
2 1 1 1 1 2 1 1 0 0 0 0 1 0 0 0 0 0 0 0 0 0 0 0 0 0 0 0 0 0 0 0 0 0 0 0 0 0 0 0 0 0 0 0 0 0 0 0 0 0 0 0 0 0
3 2 2 2 1 1 1 1 0 0 0 0 0 0 0 0 0 0 0 0 0 0 0 0 0 0 0 0 0 0 0 0 0 0 0 0 0 0 0 0 0 0 0 0 0 0 0 0 0 0 0 0 0 0
3 2 2 2 2 1 1 1 1 0 0 0 0 0 0 0 0 0 0 0 0 0 0 0 0 0 0 0 0 0 0 0 0 0 0 0 0 0 0 0 0 0 0 0 0 0 0 0 0 0 0 0 0 0
4 3 2 0 0 1 2 1 1 0 0 0 0 0 0 0 0 0 0 0 0 0 0 0 0 0 0 0 0 0 10 1 0 0 0 0 0 0 0 0 0 0 0 0 0 0 0 0 0 0 0 0 0 0
3 0 0 0 0 0 1 1 1 0 1 1 1 1 0 0 0 0 0 0 0 0 0 0 0 0 0 0 0 0 3 0 0 0 0 0 0 0 0 0 0 0 0 0 0 0 0 0 0 0 0 0 0 0
0 0 0 0 0 1 0 1 0 0 0 0 0 0 0 0 0 0 0 0 0 0 0 0 0 0 0 0 0 0 0 0 0 0 0 0 0 0 0 0 0 0 0 0 0 0 0 0 0 0 0 0 0 0
0 0 0 0 1 0 1 2 0 0 3 0 10 0 0 0 0 0 0 0 0 0 1 0 0 4 0 2 0 0 0 0 0 0 0 0 0 0 0 0 0 0 0 0 0 0 0 0 0 0 0 0 0 0
0 0 0 0 0 1 0 0 0 0 0 0 0 0 0 0 0 0 0 0 6 6 12 13 11 19 14 9 4 1 1 0 0 0 0 0 0 0 0 0 0 0 0 0 0 0 0 0 0 0 0 0 0 0
0 0 0 0 0 0 0 0 0 0 0 0 0 0 0 0 0 0 0 1 17 11 11 17 10 12 17 21 8 1 0 0 0 0 0 0 0 0 0 0 0 0 0 0 0 0 0 0 0 0 1 0 0 0
0 2 0 0 0 0 0 0 0 0 0 0 0 0 0 0 0 0 0 0 25 17 23 10 3 3 2 11 0 0 1 0 7 0 0 0 0 0 0 0 0 0 0 0 0 0 0 0 1 1 3 2 3 0
0 0 0 0 0 0 5 0 1 1 0 0 0 0 0 0 0 0 0 0 2 18 17 8 23 2 7 0 0 0 2 0 0 0 0 0 0 0 0 0 0 0 0 0 0 0 1 4 4 4 6 4 0 0
0 0 0 0 0 0 0 1 0 0 0 0 0 0 0 0 0 0 0 0 7 13 15 11 17 0 0 1 0 0 0 0 0 0 0 0 0 0 0 0 0 0 0 0 0 0 0 0 15 9 6 1 0 0
0 0 0 0 0 2 4 1 10 0 0 0 0 0 0 0 0 0 0 0 0 14 23 17 2 2 1 4 0 9 1 0 0 0 0 0 0 0 0 0 0 0 0 0 0 0 0 1 31 39 14 6 3 0
0 0 0 0 0 0 1 0 4 1 0 0 0 0 0 0 0 0 0 0 0 0 0 0 0 0 0 0 2 8 5 0 0 0 0 0 0 0 0 0 0 0 0 0 0 0 0 44 185 224 248 151 98 18
0 0 9 11 13 6 1 0 0 0 1 0 0 0 0 0 0 0 0 0 0 0 0 0 0 5 3 3 16 16 19 10 0 0 0 0 0 0 0 0 0 0 0 0 0 0 0 42 82 126 219 233 122 41
0 0 0 29 4 3 0 0 0 0 0 1 8 11 10 7 12 6 3 0 0 0 0 0 0 0 0 0 0 17 9 2 0 0 0 0 0 0 0 0 0 0 0 0 0 0 0 0 0 16 51 41 4 1
0 0 4 14 0 0 0 4 0 0 10 5 5 3 2 6 18 22 10 0 1 0 0 0 0 0 0 0 3 14 7 0 0 0 0 0 0 0 0 0 0 0 0 0 0 0 0 0 2 20 18 1 0 1
0 0 0 0 5 7 1 1 15 16 0 1 3 0 6 14 6 3 0 5 1 0 0 0 0 0 0 6 4 1 0 0 0 0 0 0 0 0 0 0 0 0 0 0 0 1 0 3 14 22 18 7 4 2
0 0 1 2 2 0 5 11 3 2 0 9 7 3 0 18 5 6 4 2 8 17 38 13 2 0 2 3 2 0 0 0 0 0 0 0 0 0 0 0 0 0 0 0 2 3 0 1 0 0 13 1 1 1
2 0 1 0 0 7 1 1 0 4 1 0 0 0 1 3 8 22 4 2 0 0 0 0 38 16 22 7 0 0 0 0 0 0 0 0 0 0 0 0 0 0 0 0 0 0 0 0 0 0 0 0 0 1
1 1 0 0 1 2 7 10 6 1 0 0 0 0 13 28 25 4 0 0 0 0 0 0 0 18 24 29 32 22 3 0 0 0 0 0 0 0 0 0 0 0 0 0 0 0 0 0 0 0 0 0 0 0
0 0 0 0 0 0 0 0 2 6 1 0 2 1 0 2 0 0 0 0 0 0 0 15 1 1 37 39 11 7 0 0 0 0 0 0 0 0 0 0 0 0 0 0 0 0 0 2 0 0 0 0 0 0
0 0 0 0 1 1 0 0 0 4 2 1 1 1 1 0 0 0 0 0 0 0 0 0 0 13 88 82 11 0 0 0 0 0 0 0 0 0 0 0 0 0 0 0 0 0 0 0 7 2 0 0 0 0
0 0 0 0 0 0 0 0 0 0 0 0 0 0 0 0 0 0 0 0 0 0 0 5 12 8 17 13 6 0 0 0 0 0 0 0 0 0 0 0 0 0 0 0 0 0 0 0 1 4 0 0 0 0
0 0 0 0 0 0 0 0 0 0 0 0 0 0 0 0 0 0 5 24 15 29 30 22 25 19 11 13 0 0 0 0 0 0 0 0 0 0 0 0 0 0 0 0 0 0 0 0 0 0 0 0 0 0
0 0 0 0 0 0 2 0 0 0 0 0 0 0 0 0 0 0 0 0 5 3 7 6 5 13 15 28 20 0 0 0 0 0 0 0 0 0 0 0 0 0 0 0 0 0 0 0 0 0 0 0 0 0
CIN
-0 -0 -0 -0 -0 -0 -0 -0 -0 -1 -0 -1 -3 -2 -0 -0 -0 -0 -0 -0 -0 -0 -0 -0 -0 -0 -0 -0 -0 -0 -0 -0 -0 -0 -0 -0 -0 -0 -0 -0 -0 -0 -0 -0 -0 -0 -0 -0 -0 -0 -0 -0 -0 -0
-0 -0 -0 -0 -0 -0 -0 -0 -0 -0 -0 -0 -0 -6 -0 -0 -0 -0 -0 -0 -0 -0 -0 -0 -0 -0 -0 -0 -0 -0 -0 -0 -0 -0 -0 -0 -0 -0 -0 -0 -0 -0 -0 -0 -0 -0 -0 -0 -0 -0 -0 -0 -0 -0
-0 -0 -1 -2 -2 -1 -2 -1 -0 -0 -0 -0 -0 -0 -0 -0 -0 -0 -0 -0 -0 -0 -0 -0 -0 -0 -0 -0 -0 -0 -0 -0 -0 -0 -0 -0 -0 -0 -0 -0 -0 -0 -0 -0 -0 -0 -0 -0 -0 -0 -0 -0 -0 -0
-0 -0 -0 -0 -0 -2 -2 -0 -0 -0 -0 -0 -0 -0 -0 -0 -0 -0 -0 -0 -0 -0 -0 -0 -0 -0 -0 -0 -0 -0 -0 -0 -0 -0 -0 -0 -0 -0 -0 -0 -0 -0 -0 -0 -0 -0 -0 -0 -0 -0 -0 -0 -0 -0
-1 -0 -1 -2 -1 -0 -0 -3 -1 -1 -1 -0 -0 -0 -0 -0 -0 -0 -0 -0 -0 -0 -0 -0 -0 -0 -0 -0 -0 -0 -0 -0 -0 -0 -0 -0 -0 -0 -0 -0 -0 -0 -0 -0 -0 -0 -0 -0 -0 -0 -0 -0 -0 -0
-2 -1 -1 -2 -1 -1 -0 -0 -1 -0 -0 -0 -0 -0 -0 -0 -0 -0 -0 -0 -0 -0 -0 -0 -0 -0 -0 -0 -0 -0 -0 -0 -0 -0 -0 -0 -0 -0 -0 -0 -0 -0 -0 -0 -0 -0 -0 -0 -0 -0 -0 -0 -0 -0
-3 -3 -2 -2 -2 -1 -0 -0 -0 -0 -0 -0 -0 -0 -0 -0 -0 -0 -0 -0 -0 -0 -0 -0 -0 -0 -0 -0 -0 -0 -0 -0 -0 -0 -0 -0 -0 -0 -0 -0 -0 -0 -0 -0 -0 -0 -0 -0 -0 -0 -0 -0 -0 -0
-2 -4 -5 -3 -2 -3 -1 -0 -0 -0 -0 -0 -0 -0 -0 -0 -0 -0 -0 -0 -0 -0 -0 -0 -0 -0 -0 -0 -0 -0 -0 -0 -0 -0 -0 -0 -0 -0 -0 -0 -0 -0 -0 -0 -0 -0 -0 -0 -0 -0 -0 -0 -0 -0
-1 -2 -1 -1 -1 -3 -1 -0 -0 -0 -0 -0 -0 -0 -0 -0 -0 -0 -0 -0 -0 -0 -0 -0 -0 -0 -0 -0 -0 -0 -0 -0 -0 -0 -0 -0 -0 -0 -0 -0 -0 -0 -0 -0 -0 -0 -0 -0 -0 -0 -0 -0 -0 -0
-1 -1 -1 -2 -3 -4 -2 -1 -0 -0 -0 -0 -0 -0 -0 -0 -0 -0 -0 -0 -0 -0 -0 -0 -0 -0 -0 -0 -0 -0 -0 -0 -0 -0 -0 -0 -0 -0 -0 -0 -0 -0 -0 -0 -0 -0 -0 -0 -0 -0 -0 -0 -0 -0
-1 -1 -2 -0 -0 -4 -3 -2 -0 -0 -0 -0 -0 -0 -0 -0 -0 -0 -0 -0 -0 -0 -0 -0 -0 -0 -0 -0 -0 -0 -45 -49 -0 -0 -0 -0 -0 -0 -0 -0 -0 -0 -0 -0 -0 -0 -0 -0 -0 -0 -0 -0 -0 -0
-1 -0 -0 -0 -0 -0 -0 -4 -1 -0 -0 -0 -0 -0 -0 -0 -0 -0 -0 -0 -0 -0 -0 -0 -0 -0 -0 -0 -0 -0 -24 -0 -0 -0 -0 -0 -0 -0 -0 -0 -0 -0 -0 -0 -0 -0 -0 -0 -0 -0 -0 -0 -0 -0
-0 -0 -0 -0 -0 -5 -4 -2 -0 -0 -0 -0 -0 -0 -0 -0 -0 -0 -0 -0 -0 -0 -0 -0 -0 -0 -0 -0 -0 -0 -0 -3 -0 -0 -0 -0 -0 -0 -0 -0 -0 -0 -0 -0 -0 -0 -0 -0 -0 -0 -0 -0 -0 -0
-0 -0 -0 -3 -0 -0 -1 -0 -0 -0 -0 -9 -18 -0 -0 -0 -0 -0 -0 -0 -0 -5 -44 -0 -3 -11 -0 -36 -0 -0 -0 -0 -0 -0 -0 -0 -0 -0 -0 -0 -0 -0 -0 -0 -0 -0 -0 -0 -0 -0 -0 -0 -0 -0
-0 -0 -0 -0 -0 -0 -0 -0 -0 -0 -0 -0 -0 -0 -0 -0 -0 -0 -0 -4 -44 -70 -45 -52 -59 -49 -39 -29 -56 -14 -8 -0 -0 -0 -0 -0 -0 -0 -0 -0 -0 -0 -0 -0 -0 -0 -0 -0 -0 -0 -0 -0 -0 -0
-0 -0 -0 -0 -0 -0 -0 -0 -0 -0 -0 -0 -0 -0 -0 -0 -0 -0 -4 -22 -46 -65 -95 -66 -55 -34 -33 -44 -29 -20 -6 -0 -0 -0 -0 -0 -0 -0 -0 -0 -0 -0 -0 -0 -0 -0 -0 -0 -0 -0 -12 -14 -0 -0
-0 -5 -0 -0 -0 -0 -13 -1 -0 -0 -0 -0 -0 -0 -0 -0 -3 -0 -8 -0 -57 -28 -25 -31 -6 -10 -20 -9 -3 -0 -6 -15 -34 -0 -0 -0 -0 -0 -0 -0 -0 -0 -0 -0 -0 -0 -0 -0 -42 -23 -10 -13 -21 -13
-0 -0 -0 -0 -0 -0 -12 -2 -2 -0 -0 -0 -0 -0 -0 -0 -0 -0 -0 -0 -24 -28 -37 -19 -19 -8 -3 -2 -0 -0 -39 -0 -0 -0 -0 -0 -0 -0 -0 -0 -0 -0 -0 -0 -0 -0 -33 -50 -39 -16 -15 -17 -0 -0
-0 -0 -0 -0 -0 -0 -0 -3 -2 -0 -0 -0 -0 -0 -0 -0 -0 -0 -0 -13 -60 -62 -39 -30 -11 -0 -0 -54 -3 -0 -0 -0 -0 -0 -0 -0 -0 -0 -0 -0 -0 -0 -0 -0 -0 -0 -0 -26 -43 -37 -33 -50 -22 -0
-0 -0 -0 -0 -0 -21 -4 -1 -15 -0 -0 -0 -0 -0 -0 -0 -0 -0 -0 -0 -0 -17 -12 -9 -13 -20 -10 -18 -25 -28 -11 -17 -0 -0 -0 -0 -0 -0 -0 -0 -0 -0 -0 -0 -0 -0 -0 -75 -113 -129 -129 -42 -39 -16
-0 -0 -0 -0 -0 -32 -8 -0 -9 -4 -0 -0 -0 -0 -0 -0 -0 -0 -0 -0 -0 -0 -0 -0 -0 -0 -0 -0 -47 -42 -57 -0 -0 -0 -0 -0 -0 -0 -0 -0 -0 -0 -0 -0 -0 -0 -0 -88 -61 -70 -75 -91 -82 -86
-0 -0 -10 -6 -0 -3 -0 -0 -0 -0 -4 -0 -0 -0 -0 -0 -0 -0 -0 -0 -0 -0 -0 -0 -0 -48 -52 -45 -40 -78 -53 -84 -0 -0 -0 -0 -0 -0 -0 -0 -0 -0 -0 -0 -0 -0 -0 -77 -89 -103 -85 -70 -83 -94
-0 -0 -11 -2 -1 -1 -0 -0 -0 -0 -0 -4 -22 -11 -18 -33 -40 -78 -12 -0 -0 -0 -0 -0 -0 -0 -0 -0 -0 -79 -82 -87 -0 -0 -0 -0 -0 -0 -0 -0 -0 -0 -0 -0 -0 -0 -0 -0 -9 -148 -122 -112 -64 -0
-0 -0 -8 -0 -1 -0 -0 -3 -10 -0 -3 -3 -4 -2 -2 -7 -33 -9 -10 -0 -59 -1 -0 -0 -0 -0 -0 -0 -68 -56 -80 -0 -0 -0 -0 -0 -0 -0 -0 -0 -0 -0 -0 -0 -0 -0 -0 -0 -90 -79 -71 -23 -0 -0
-0 -0 -1 -0 -7 -0 -6 -0 -1 -2 -3 -4 -2 -2 -5 -14 -5 -7 -0 -30 -46 -0 -0 -0 -0 -0 -0 -57 -79 -77 -0 -0 -0 -0 -0 -0 -0 -0 -0 -0 -0 -0 -0 -0 -0 -11 -0 -36 -56 -56 -72 -48 -55 -0
-5 -1 -0 -5 -0 -0 -0 -0 -0 -2 -1 -3 -5 -7 -1 -9 -1 -0 -14 -75 -112 -132 -113 -106 -27 -0 -17 -46 -38 -0 -5 -0 -0 -0 -0 -0 -0 -0 -0 -0 -0 -0 -0 -0 -16 -12 -22 -27 -23 -23 -54 -0 -0 -0
-1 -1 -11 -0 -0 -6 -1 -2 -6 -0 -3 -0 -0 -0 -13 -3 -2 -9 -31 -73 -0 -0 -0 -0 -108 -53 -25 -31 -0 -0 -0 -0 -0 -0 -0 -0 -0 -0 -0 -0 -0 -0 -0 -0 -0 -0 -0 -0 -24 -0 -0 -0 -0 -0
-0 -4 -0 -0 -4 -4 -0 -5 -1 -1 -0 -0 -2 -0 -3 -2 -1 -5 -0 -0 -8 -0 -0 -0 -0 -87 -52 -52 -43 -67 -75 -0 -0 -0 -0 -0 -0 -0 -0 -0 -0 -0 -0 -0 -0 -0 -0 -14 -0 -0 -0 -0 -0 -0
-0 -0 -0 -0 -0 -0 -0 -0 -17 -19 -32 -4 -4 -12 -0 -22 -0 -0 -0 -0 -0 -0 -0 -114 -29 -16 -89 -72 -85 -77 -0 -0 -0 -0 -0 -0 -0 -0 -0 -0 -0 -0 -0 -0 -0 -0 -0 -75 -2 -9 -0 -0 -0 -0
-0 -0 -0 -0 -2 -6 -0 -0 -0 -24 -26 -13 -11 -7 -16 -18 -0 -0 -0 -0 -0 -0 -0 -0 -0 -97 -18 -35 -15 -0 -0 -0 -0 -0 -0 -0 -0 -0 -0 -0 -0 -0 -0 -0 -0 -0 -0 -24 -77 -92 -0 -0 -0 -0
-0 -0 -0 -0 -0 -0 -0 -0 -0 -0 -0 -0 -0 -0 -0 -0 -0 -0 -0 -0 -35 -0 -0 -52 -94 -113 -54 -38 -48 -0 -0 -0 -0 -0 -0 -0 -0 -0 -0 -0 -0 -0 -0 -0 -0 -0 -0 -0 -32 -59 -25 -0 -0 -0
-0 -0 -0 -0 -0 -0 -0 -0 -0 -0 -0 -0 -0 -0 -0 -0 -0 -0 -114 -137 -123 -105 -143 -123 -58 -63 -153 -114 -0 -0 -0 -0 -0 -0 -0 -0 -0 -0 -0 -0 -0 -0 -0 -0 -0 -0 -0 -0 -0 -0 -0 -0 -0 -0
-1 -0 -0 -0 -0 -0 -2 -0 -4 -0 -0 -0 -0 -0 -0 -0 -0 -0 -0 -0 -177 -156 -155 -137 -165 -171 -158 -109 -57 -0 -0 -0 -0 -0 -0 -0 -0 -0 -0 -0 -0 -0 -0 -0 -0 -0 -0 -0 -0 -0 -0 -0 -0 -0
Wind_Speed
25 24 27 28 27 26 26 26 26 25 24 24 23 23 23 22 22 20 20 19 19 24 28 24 23 23 22 22 24 22 21 22 23 25 24 23 24 22 22 21 20 20 19 19 18 19 20 25 19 19 14 18 21 24
23 24 26 26 27 26 26 26 25 25 25 25 24 23 23 23 23 21 20 22 23 23 25 25 31 31 27 24 22 23 23 22 20 20 20 18 20 19 18 20 17 19 16 18 17 16 13 18 15 14 15 19 22 25
24 23 24 25 26 26 26 26 26 26 26 26 25 25 24 23 23 22 21 22 20 23 26 26 25 24 24 25 23 25 24 22 20 18 16 18 20 17 20 20 19 18 16 18 16 12 12 15 16 18 20 22 24 27
25 25 25 25 25 26 26 26 26 26 27 27 26 26 25 25 24 23 22 20 18 19 22 22 20 19 21 17 20 21 20 19 17 18 19 19 20 16 19 19 19 19 18 16 18 15 18 16 21 22 24 24 26 28
25 25 25 25 25 25 26 26 26 26 27 27 26 26 26 25 25 24 19 16 17 18 21 24 24 20 21 17 19 19 19 20 19 20 20 20 19 19 21 22 22 17 17 18 21 15 18 19 18 20 23 24 26 28
25 25 25 25 25 24 25 26 26 26 26 26 26 26 25 25 24 20 19 16 16 17 19 22 21 21 18 16 15 13 14 16 17 17 18 19 19 20 22 22 20 15 16 16 20 13 15 17 16 18 23 25 27 28
25 24 24 24 24 24 24 25 25 25 25 25 25 25 25 24 22 20 20 16 18 20 18 22 21 18 16 13 15 15 15 16 16 18 20 20 20 20 21 22 23 19 18 17 16 14 18 17 21 23 26 29 31 31
25 24 24 24 24 24 24 23 24 23 23 24 24 25 25 25 23 22 19 19 15 17 17 20 20 19 13 15 16 16 15 15 17 17 17 18 17 17 21 20 21 18 13 14 14 17 20 22 24 26 29 32 36 35
25 24 24 24 24 24 23 23 23 24 24 25 24 24 18 17 17 17 14 14 17 18 19 20 19 17 16 16 15 14 14 16 17 16 17 14 17 18 18 19 18 11 12 16 16 19 22 24 27 30 31 34 36 39
24 24 24 24 24 24 23 23 23 24 25 23 18 18 18 17 15 16 17 17 18 20 20 23 19 19 16 15 15 14 16 16 16 17 15 16 21 22 23 20 11 11 13 14 18 23 24 28 31 32 33 34 34 35
24 23 23 23 23 23 23 23 22 22 18 16 16 17 18 17 16 16 17 17 17 20 20 24 23 21 16 16 14 15 15 15 17 16 18 20 21 17 14 12 12 12 14 17 20 23 26 28 30 32 30 29 30 30
24 23 23 23 23 22 22 22 21 19 16 17 18 18 17 16 16 17 18 17 18 20 17 18 21 19 19 14 14 15 16 16 17 17 18 20 18 15 11 12 12 14 17 21 24 26 27 27 27 28 28 28 32 32
23 23 23 23 22 22 23 22 20 19 18 16 16 15 15 15 18 19 18 17 17 16 16 19 17 13 13 14 14 15 16 19 19 20 19 19 16 11 10 12 15 17 19 23 28 27 25 27 27 27 27 28 27 25
23 23 22 21 22 22 21 19 17 16 15 17 16 17 16 17 19 17 16 16 20 18 19 16 13 13 13 14 14 17 17 18 19 19 18 16 11 10 12 15 16 20 25 28 28 25 24 25 28 30 30 30 27 26
23 22 20 20 21 18 17 16 15 15 16 17 17 19 19 19 20 21 23 19 19 19 17 14 14 14 15 15 16 16 17 17 16 16 15 15 12 12 14 15 20 25 29 30 32 33 35 35 34 40 35 31 28 20
23 20 19 21 21 19 16 16 16 16 18 18 19 19 20 19 17 17 16 18 18 16 16 16 16 17 17 15 16 14 16 16 17 14 15 16 14 14 16 20 24 28 31 33 31 33 31 33 31 37 34 29 20 18
22 17 21 21 21 20 18 17 16 18 19 21 22 23 24 24 23 19 20 19 17 18 18 16 19 17 16 16 18 16 18 19 16 15 14 14 15 17 19 22 27 31 32 31 31 31 32 29 30 34 33 33 29 23
19 22 23 22 21 18 17 16 17 19 22 24 24 22 21 23 25 24 22 21 20 16 12 15 13 16 18 17 15 15 18 17 15 12 13 15 17 17 18 22 27 29 31 31 28 30 28 30 31 31 31 29 25 23
25 26 25 23 20 18 17 17 17 20 23 24 26 29 30 31 31 30 28 25 21 18 13 16 18 17 16 17 16 18 17 14 14 14 15 16 16 17 17 21 24 28 30 29 29 29 29 26 25 26 27 25 24 24
22 21 21 21 12 17 18 18 18 21 22 22 24 27 27 30 32 30 31 29 24 21 20 19 20 19 19 18 12 15 13 11 12 13 16 17 13 16 17 20 24 26 28 26 25 28 27 27 26 26 26 27 25 25
20 18 17 15 16 18 20 20 21 21 23 23 24 23 23 22 25 27 29 27 27 26 26 24 23 21 20 21 21 17 12 9 10 12 18 20 18 17 17 22 23 26 26 25 25 24 22 14 5 12 17 19 22 23
19 20 18 17 18 18 21 20 21 22 23 24 25 21 21 21 23 24 21 24 30 31 29 27 19 16 21 22 21 12 12 11 12 15 17 18 21 24 25 26 29 28 25 21 19 19 13 14 9 14 17 18 19 21
19 18 18 18 18 19 20 18 20 20 19 18 18 17 16 16 17 13 19 22 25 28 26 20 13 13 15 20 12 10 7 7 11 13 16 19 19 21 24 28 28 27 26 23 19 27 25 19 21 20 17 17 17 17
17 17 18 18 18 20 19 20 20 19 18 17 16 17 17 17 16 19 21 22 25 23 19 16 7 6 11 7 2 6 7 7 10 13 16 17 19 20 22 26 30 27 25 7 17 27 24 23 22 19 22 22 16 12
18 18 18 20 20 20 20 19 20 20 20 20 19 19 17 16 15 18 17 17 18 18 21 10 6 9 6 4 8 8 6 9 10 12 14 16 18 19 23 26 28 28 22 19 24 23 22 22 21 22 23 12 11 13
19 20 20 20 19 19 19 18 16 19 19 20 19 19 18 19 18 16 13 14 13 13 15 2 12 9 9 6 9 11 15 12 12 13 13 14 16 21 24 25 29 18 14 3 5 15 18 17 19 16 7 13 11 17
19 20 21 21 20 19 20 19 20 19 20 19 19 19 19 20 20 17 16 14 14 14 15 16 19 20 13 16 17 15 13 14 13 13 14 15 16 19 21 18 16 5 8 5 16 11 11 16 18 23 19 5 10 10
20 19 21 19 20 21 21 19 19 19 19 19 18 20 20 19 18 18 16 15 15 16 16 18 23 21 22 20 18 14 11 13 13 14 15 16 17 18 20 22 22 24 8 6 11 18 17 19 19 20 20 20 21 20
20 20 19 21 22 22 22 22 21 20 19 20 20 20 21 21 21 20 20 19 19 17 15 13 11 23 24 20 14 13 14 15 15 14 13 12 12 13 15 18 22 25 27 28 26 22 19 20 19 18 17 17 15 16
19 21 20 20 21 21 23 23 21 21 20 21 22 22 23 23 22 22 24 23 21 20 19 18 16 15 20 18 12 11 16 15 15 13 11 10 11 13 14 15 18 21 24 26 27 27 26 24 22 21 21 17 16 15
17 19 20 20 20 21 22 23 25 25 25 26 26 24 23 23 21 21 22 23 23 17 17 16 15 15 6 16 15 15 15 16 17 15 12 12 14 14 15 15 16 18 20 23 26 26 26 25 24 23 22 21 21 20
18 19 19 18 18 17 19 20 20 21 22 24 24 24 25 22 21 18 16 17 16 16 13 11 13 15 16 15 14 16 19 16 18 16 16 15 15 16 16 16 17 19 20 21 23 25 26 28 28 29 28 27 26 25
15 17 17 15 16 16 16 16 17 17 18 18 19 19 20 18 19 16 16 17 15 12 15 19 19 19 19 19 18 11 16 15 15 17 17 17 17 18 19 19 20 20 21 21 22 22 23 24 25 25 25 25 25 25
Wind_Direction
307 308 296 285 288 286 283 282 282 283 283 286 291 298 303 307 309 301 283 296 285 270 265 266 267 266 270 274 272 282 286 291 290 288 291 295 298 302 302 302 308 307 310 309 313 311 310 319 323 316 324 323 320 319
327 308 303 284 284 284 283 283 282 283 284 284 286 290 299 303 307 307 287 291 288 275 270 273 265 263 267 272 277 281 285 289 290 292 293 298 296 303 305 303 318 309 316 315 317 319 336 339 348 343 336 326 323 320
319 322 308 290 279 282 283 282 282 283 284 285 286 288 292 298 303 306 291 289 290 277 271 271 269 272 271 269 277 276 281 284 286 291 292 295 296 304 299 301 306 311 319 316 320 325 331 334 335 332 328 324 322 320
313 311 304 291 285 282 282 282 280 282 283 285 286 288 290 292 294 297 289 287 291 281 267 266 278 273 274 274 277 277 281 289 290 290 289 291 295 306 304 307 304 309 313 314 314 314 314 312 320 323 323 324 322 321
304 306 304 296 291 288 283 282 282 282 283 284 285 286 287 289 287 287 284 290 293 281 265 258 265 268 273 280 278 278 278 279 283 284 288 290 299 303 303 302 301 306 306 306 306 314 315 318 321 325 324 325 324 323
300 299 297 298 296 293 288 280 280 282 283 283 284 285 287 288 287 286 284 292 306 295 277 260 273 270 276 282 292 290 288 286 288 288 292 297 298 299 299 301 308 312 313 314 314 317 319 325 327 328 327 327 327 325
301 299 295 295 296 295 298 284 279 280 284 284 283 284 284 285 286 278 274 286 289 284 281 268 267 275 277 290 294 295 292 293 293 292 290 293 296 302 300 298 302 305 307 309 317 323 320 322 324 325 325 325 324 322
304 297 295 294 295 289 293 286 277 280 281 284 283 281 281 275 277 275 283 276 293 288 285 274 271 278 277 281 289 295 292 296 297 297 302 300 307 307 305 308 309 315 318 318 320 322 323 325 324 324 324 323 321 322
303 300 293 288 289 285 283 278 271 276 284 284 284 282 290 290 286 285 298 307 294 281 276 273 270 276 278 277 293 298 300 296 299 300 300 315 308 307 313 315 319 323 321 322 322 323 323 323 323 324 324 324 323 319
299 292 288 287 287 284 280 278 272 270 276 284 290 283 280 285 298 300 289 288 286 275 274 263 267 267 276 278 284 292 295 299 307 306 318 312 307 307 309 316 330 334 333 335 329 325 324 323 323 323 323 324 325 324
294 293 290 285 283 279 272 274 275 272 271 283 279 277 282 285 291 288 282 281 280 272 269 259 257 259 278 278 283 292 304 309 308 312 312 312 313 330 338 349 349 346 342 336 331 329 327 325 325 325 327 327 328 328
292 290 287 284 280 270 270 270 272 270 272 269 272 280 283 281 282 277 274 278 276 266 274 269 263 262 271 293 293 297 300 309 308 324 319 315 327 339 349 353 354 350 342 336 334 331 330 329 330 329 328 326 323 323
291 287 284 283 283 278 267 266 269 269 272 273 274 283 285 281 268 267 266 269 270 271 276 282 278 274 276 289 300 303 305 301 313 312 316 321 334 357 8 359 347 343 342 339 335 334 332 330 329 328 326 324 323 325
290 287 285 289 291 282 274 273 275 275 278 265 268 275 276 271 266 267 263 272 269 272 280 282 280 285 290 294 306 302 305 310 310 312 317 326 352 4 358 349 350 345 339 337 337 336 332 329 327 324 321 320 320 321
289 285 290 300 302 302 293 288 288 279 274 271 271 271 269 273 272 270 267 272 273 277 286 286 290 293 293 301 304 305 307 310 316 321 328 340 352 353 351 352 346 340 338 337 336 334 331 330 329 320 323 323 322 322
287 282 300 300 300 294 291 287 284 275 276 277 272 272 271 270 276 280 277 276 284 285 288 291 288 290 292 301 300 302 310 315 321 333 339 345 351 352 354 348 344 341 339 339 341 339 342 338 337 326 328 330 333 329
284 302 293 293 294 283 285 284 283 279 274 272 270 266 265 264 266 277 281 283 293 286 282 285 280 282 299 300 292 300 302 313 329 336 348 354 352 351 352 349 344 342 344 345 345 344 342 343 340 330 330 326 327 330
296 280 280 283 289 285 292 289 284 280 273 270 270 272 273 270 267 269 275 279 285 291 288 283 294 284 289 297 306 312 311 323 336 353 357 352 348 355 357 352 349 351 350 350 351 349 349 346 342 337 332 333 332 324
271 266 262 262 282 288 287 288 286 280 276 280 275 264 263 261 261 260 267 272 277 281 291 285 287 291 289 294 307 315 317 333 340 349 351 346 349 351 358 355 355 353 354 356 354 354 353 354 353 347 342 336 317 302
280 277 272 267 313 288 287 286 285 282 281 287 289 276 271 263 258 260 259 262 269 276 278 282 286 287 296 301 320 309 329 343 351 350 347 349 357 354 356 354 352 355 356 357 358 356 358 357 353 347 336 303 282 275
284 290 291 299 290 284 280 277 280 290 287 285 284 286 278 275 265 262 259 263 265 268 272 274 279 284 284 288 301 319 327 345 351 349 341 341 353 356 356 352 354 352 351 353 354 2 10 26 256 256 256 254 260 260
279 273 279 284 283 285 276 282 287 285 283 276 279 286 278 274 268 265 270 267 262 264 268 272 281 283 280 289 299 323 328 344 347 350 346 350 350 350 351 354 352 354 1 4 12 15 7 271 261 262 260 253 257 262
266 269 275 280 279 274 268 296 284 278 277 284 291 285 282 284 278 289 272 270 268 268 272 280 284 280 287 291 308 328 354 10 357 358 358 354 359 2 1 1 4 3 0 5 24 347 305 284 291 288 276 302 295 291
265 263 266 275 274 266 274 266 265 264 267 284 285 278 279 279 283 271 267 268 259 272 280 278 292 302 297 320 69 5 10 16 16 11 9 10 10 14 15 10 7 9 358 68 32 337 311 307 308 317 342 335 314 308
254 254 267 254 257 253 255 252 245 248 251 252 260 264 261 267 270 264 256 271 277 271 244 281 100 118 104 87 342 4 52 77 57 43 31 35 37 31 15 10 11 11 316 295 354 320 320 329 336 6 2 326 330 352
241 245 235 238 239 233 228 234 254 232 227 218 228 236 236 231 228 242 261 268 262 264 257 82 106 94 107 8 40 88 113 87 70 53 65 74 57 31 21 28 1 314 304 182 190 298 322 328 351 340 282 336 344 34
230 230 220 230 240 241 230 233 234 228 225 228 234 232 225 217 215 225 234 263 268 269 262 260 236 151 108 119 123 109 89 105 104 102 92 91 71 48 50 70 77 282 288 273 317 295 294 343 8 38 93 279 342 1
221 232 218 230 230 227 230 231 231 225 218 225 230 220 217 213 211 226 238 251 260 260 266 257 222 160 158 149 143 116 94 102 81 61 66 78 63 49 45 47 56 56 300 284 305 345 351 14 24 32 35 36 42 53
224 228 232 223 222 215 209 202 215 219 224 224 224 226 227 238 246 245 245 256 257 258 270 278 288 185 174 161 127 112 103 106 104 109 119 101 85 83 66 55 48 41 48 42 19 11 6 19 28 29 28 31 27 31
215 200 215 221 215 214 211 199 215 220 232 234 236 240 243 239 236 241 240 245 239 233 227 236 260 267 148 144 105 97 128 130 133 120 116 116 118 94 82 77 70 63 59 52 45 44 52 44 41 44 50 42 34 34
211 192 205 209 216 214 217 228 235 236 237 234 229 221 222 241 252 248 247 244 238 269 266 270 275 283 330 132 131 134 138 158 162 156 132 105 114 108 104 103 99 95 91 76 51 50 54 55 53 52 52 54 58 60
188 184 197 204 211 217 229 225 221 218 220 218 215 212 229 247 245 248 261 267 274 272 293 298 291 290 275 279 296 157 179 141 150 153 147 123 116 123 115 111 113 115 108 101 93 87 87 77 74 71 75 77 76 71
193 193 193 204 207 208 214 218 224 231 231 249 249 210 210 261 256 277 293 311 311 333 291 272 273 275 265 269 275 130 144 123 113 113 112 106 108 120 125 119 121 125 121 116 113 109 103 93 87 88 90 91 93 95